コプフ彗星

22P/Kopff (2022)

English version
Home page
Updated on April 15, 2023

---------------------------------------------------------------------

・ プロフィール

・ 写真集

・ 軌道要素

Epoch 2022 Aug. 9.0 TT = JDT 2459800.5
T 2022 Mar. 18.14966 TT                                 Rudenko
q   1.5523745            (2000.0)            P               Q
n   0.15434359     Peri.  163.03426     +0.24042543     +0.96806854
a   3.4419956      Node   120.82677     -0.89989003     +0.24971092
e   0.5489900      Incl.    4.74171     -0.36385925     +0.02208525
P   6.39
>From 4770 observations 2008 Jan. 30-2022 Nov. 3, mean residual 0".7.
     Nongravitational parameters A1 = +0.05, A2 = -0.0395.

・ 星図

・ 光度変化

        H = 14.5  G = 0.15               [    ,-525]  (              〜2020年10月 9日)
        m1 = 5.3 + 5 logΔ + 21.0 log r  [-525, 550]  (2020年10月 9日〜2023年 9月19日)
        H = 14.5  G = 0.15               [ 550,    ]  (2023年 9月19日〜              )

---------------------------------------------------------------------

軌道要素はM.P.E.C. 2022-V95に掲載されたものです。
星図はステラナビゲータ Ver.10 (アストロアーツ) で作成したものです。
光度グラフはComet for Windowsで作成したものです。

---------------------------------------------------------------------

Copyright(C) Seiichi Yoshida (comet@aerith.net). All rights reserved.